No particular awareness of the weather is required.    There are no Weather-warnings


Meteo18 Weather Cam more information Meteo18 Weather Cam


Thunder radar more information blitzortung!


Rain radar more information rain snow radar


Visit our other weather sites:

Template documentation
and downloads

And another site



Weather Underground History page Text

Daily Summary for March 1, 2018 Units:  Metric    English   Both
« Previous Day
Next Day »
Daily Weekly Monthly Yearly Custom
  High: Low: Average:
Temperature: -17.8 °C -19.1 °C -15.9 °C
Dew Point: -17.8 °C -19.7 °C -17.1 °C
Humidity: Humidity % 69 % 86 %
Wind Speed: 0 km/h 0 km/h 7.9 km/h
Wind Gust: 0 km/h - -
Wind:- - ENE
Pressure: 0 hPa 33396.1 hPa -
Precipitation: 58.42 mm    
Historical Graphs
 
 
Tabular Data for March 1, 2018
Time Temperature Dew Point Pressure Wind Wind Speed Wind Gust Humidity Rainfall Rate (Hourly)
-17.8 °C -17.8 °C 0 hPa Calm     Humidity % 0 mm
00:02 -19.1 °C -19.7 °C 33788.9 hPa NNE 12.7 km/h 20.8 km/h 92 % 0 mm
00:08 -19.1 °C -19.6 °C 33788.9 hPa NE 12.7 km/h 20.8 km/h 93 % 0 mm
00:14 -19.1 °C -19.6 °C 33788.9 hPa NE 10.3 km/h 23.3 km/h 93 % 0 mm
00:20 -19 °C -19.6 °C 33788.9 hPa NNE 17.9 km/h 25.9 km/h 93 % 0 mm
00:26 -19 °C -19.6 °C 33788.9 hPa NE 5.1 km/h 18.2 km/h 93 % 0 mm
00:32 -19 °C -19.6 °C 33788.9 hPa East 12.7 km/h 20.8 km/h 93 % 0 mm
00:38 -19 °C -19.6 °C 33788.9 hPa NE 17.9 km/h 20.8 km/h 93 % 0 mm
00:44 -18.9 °C -19.4 °C 33775.4 hPa NE 12.7 km/h 20.8 km/h 94 % 0 mm
00:50 -18.9 °C -19.4 °C 33775.4 hPa NNE 15.6 km/h 25.9 km/h 94 % 0 mm
00:57 -18.9 °C -19.4 °C 33775.4 hPa ENE 10.3 km/h 20.8 km/h 94 % 0 mm
01:03 -18.9 °C -19.4 °C 33775.4 hPa ENE 15.6 km/h 18.2 km/h 94 % 0 mm
01:09 -18.8 °C -19.3 °C 33775.4 hPa NE 12.7 km/h 20.8 km/h 94 % 0 mm
01:15 -18.8 °C -19.3 °C 33775.4 hPa NE 17.9 km/h 25.9 km/h 94 % 0 mm
01:21 -18.8 °C -19.2 °C 33775.4 hPa NE 10.3 km/h 20.8 km/h 94 % 0 mm
01:27 -18.8 °C -19.2 °C 33775.4 hPa NE 23 km/h 23.3 km/h 94 % 0 mm
01:33 -18.7 °C -19.2 °C 33775.4 hPa NNE 15.6 km/h 25.9 km/h 94 % 0 mm
01:39 -18.7 °C -19.2 °C 33775.4 hPa NE 15.6 km/h 23.3 km/h 94 % 0 mm
01:45 -18.8 °C -19.3 °C 33775.4 hPa NNE 15.6 km/h 23.3 km/h 93 % 0 mm
01:51 -18.8 °C -19.2 °C 33775.4 hPa NNE 17.9 km/h 25.9 km/h 94 % 0 mm
01:57 -18.8 °C -19.2 °C 33775.4 hPa NE 10.3 km/h 18.2 km/h 94 % 0 mm
02:03 -18.8 °C -19.2 °C 33765.2 hPa ENE 15.6 km/h 18.2 km/h 94 % 0 mm
02:09 -18.8 °C -19.2 °C 33775.4 hPa NNE 10.3 km/h 15.6 km/h 94 % 0 mm
02:15 -18.8 °C -19.3 °C 33765.2 hPa NE 12.7 km/h 20.8 km/h 94 % 0 mm
02:21 -18.8 °C -19.3 °C 33765.2 hPa ENE 10.3 km/h 18.2 km/h 94 % 0 mm
02:27 -18.8 °C -19.3 °C 33765.2 hPa NNE 12.7 km/h 20.8 km/h 94 % 0 mm
02:33 -18.8 °C -19.2 °C 33751.6 hPa NNE 10.3 km/h 15.6 km/h 95 % 0 mm
02:39 -18.8 °C -19.2 °C 33751.6 hPa ENE 10.3 km/h 18.2 km/h 95 % 0 mm
02:45 -18.8 °C -19.2 °C 33751.6 hPa NNE 12.7 km/h 18.2 km/h 95 % 0 mm
02:51 -18.8 °C -19.2 °C 33751.6 hPa NE 5.1 km/h 15.6 km/h 95 % 0 mm
02:57 -18.8 °C -19.2 °C 33741.5 hPa ENE 10.3 km/h 15.6 km/h 95 % 0 mm
03:03 -18.8 °C -19.2 °C 33741.5 hPa NNE 5.1 km/h 15.6 km/h 95 % 0 mm
03:09 -18.8 °C -19.2 °C 33741.5 hPa NE 5.1 km/h 20.8 km/h 95 % 0 mm
03:15 -18.8 °C -19.2 °C 33731.3 hPa NE 15.6 km/h 18.2 km/h 95 % 0 mm
03:21 -18.8 °C -19.2 °C 33731.3 hPa NE 7.6 km/h 15.6 km/h 95 % 0 mm
03:27 -18.8 °C -19.2 °C 33731.3 hPa NE 12.7 km/h 20.8 km/h 95 % 0 mm
03:33 -18.8 °C -19.2 °C 33717.8 hPa NE 10.3 km/h 18.2 km/h 95 % 0 mm
03:39 -18.8 °C -19.2 °C 33717.8 hPa NE 12.7 km/h 23.3 km/h 95 % 0 mm
03:45 -18.8 °C -19.2 °C 33717.8 hPa ENE 10.3 km/h 20.8 km/h 95 % 0 mm
03:51 -18.7 °C -19.1 °C 33717.8 hPa NE 7.6 km/h 12.9 km/h 96 % 0 mm
03:57 -18.7 °C -19.1 °C 33717.8 hPa NE 2.3 km/h 15.6 km/h 95 % 0 mm
04:03 -18.7 °C -19.1 °C 33717.8 hPa NE 10.3 km/h 18.2 km/h 96 % 0 mm
04:09 -18.7 °C -19.1 °C 33717.8 hPa NE 12.7 km/h 18.2 km/h 96 % 0 mm
04:15 -18.7 °C -19.1 °C 33717.8 hPa NE 7.6 km/h 15.6 km/h 96 % 0 mm
04:21 -18.7 °C -19.1 °C 33717.8 hPa NNE 15.6 km/h 23.3 km/h 96 % 0 mm
04:27 -18.7 °C -19 °C 33717.8 hPa NE 15.6 km/h 18.2 km/h 96 % 0 mm
04:33 -18.7 °C -19 °C 33717.8 hPa NE 10.3 km/h 12.9 km/h 96 % 0 mm
04:39 -18.7 °C -19 °C 33707.6 hPa ENE 5.1 km/h 10.3 km/h 96 % 0 mm
04:45 -18.7 °C -19 °C 33707.6 hPa NE 7.6 km/h 12.9 km/h 96 % 0 mm
04:51 -18.7 °C -19 °C 33707.6 hPa ENE 5.1 km/h 10.3 km/h 96 % 0 mm
04:57 -18.7 °C -19 °C 33707.6 hPa NE 7.6 km/h 12.9 km/h 96 % 0 mm
05:03 -18.7 °C -19 °C 33707.6 hPa ENE 2.3 km/h 15.6 km/h 96 % 0 mm
05:09 -18.7 °C -19 °C 33707.6 hPa NE 12.7 km/h 12.9 km/h 96 % 0 mm
05:15 -18.7 °C -19 °C 33707.6 hPa NE 7.6 km/h 12.9 km/h 96 % 0 mm
05:21 -18.7 °C -19 °C 33707.6 hPa NE 10.3 km/h 15.6 km/h 96 % 0 mm
05:27 -18.6 °C -18.9 °C 33707.6 hPa NE 2.3 km/h 10.3 km/h 96 % 0 mm
05:33 -18.6 °C -18.9 °C 33707.6 hPa NE 7.6 km/h 12.9 km/h 96 % 0 mm
05:39 -18.6 °C -18.9 °C 33707.6 hPa NE 10.3 km/h 15.6 km/h 96 % 0 mm
05:45 -18.6 °C -18.9 °C 33707.6 hPa NE 5.1 km/h 10.3 km/h 96 % 0 mm
05:51 -18.6 °C -18.9 °C 33707.6 hPa NE 5.1 km/h 12.9 km/h 96 % 0 mm
05:57 -18.6 °C -18.9 °C 33707.6 hPa NE 2.3 km/h 7.7 km/h 96 % 0 mm
06:03 -18.6 °C -18.9 °C 33694.1 hPa NE 2.3 km/h 10.3 km/h 96 % 0 mm
06:09 -18.5 °C -18.8 °C 33694.1 hPa ENE 2.3 km/h 10.3 km/h 96 % 0 mm
06:15 -18.5 °C -18.8 °C 33694.1 hPa NE 5.1 km/h 10.3 km/h 96 % 0 mm
06:21 -18.5 °C -18.8 °C 33694.1 hPa ENE 2.3 km/h 7.7 km/h 96 % 0 mm
06:27 -18.4 °C -18.8 °C 33694.1 hPa ENE 5.1 km/h 7.7 km/h 96 % 0 mm
06:33 -18.4 °C -18.8 °C 33694.1 hPa ENE 5.1 km/h 12.9 km/h 96 % 0 mm
06:39 -18.4 °C -18.7 °C 33694.1 hPa ENE 5.1 km/h 12.9 km/h 96 % 0 mm
06:45 -18.3 °C -18.7 °C 33694.1 hPa ENE 5.1 km/h 10.3 km/h 96 % 0 mm
06:51 -18.3 °C -18.6 °C 33694.1 hPa ENE 2.3 km/h 10.3 km/h 96 % 0 mm
06:57 -18.2 °C -18.6 °C 33694.1 hPa NNE 5.1 km/h 7.7 km/h 96 % 0 mm
07:03 -18.2 °C -18.6 °C 33694.1 hPa ENE 5.1 km/h 7.7 km/h 96 % 0 mm
07:09 -18.2 °C -18.5 °C 33694.1 hPa Calm   5.1 km/h 96 % 0 mm
07:15 -18.2 °C -18.5 °C 33694.1 hPa ENE 2.3 km/h 7.7 km/h 96 % 0 mm
07:21 -18.1 °C -18.4 °C 33694.1 hPa ENE 5.1 km/h 5.1 km/h 96 % 0 mm
07:27 -18.1 °C -18.4 °C 33694.1 hPa ENE 2.3 km/h 7.7 km/h 96 % 0 mm
07:33 -18.1 °C -18.4 °C 33683.9 hPa ENE 5.1 km/h 7.7 km/h 96 % 0 mm
07:39 -18 °C -18.3 °C 33683.9 hPa Calm   7.7 km/h 96 % 0 mm
07:45 -18 °C -18.3 °C 33683.9 hPa Calm   5.1 km/h 96 % 0 mm
07:51 -17.9 °C -18.3 °C 33683.9 hPa ENE 2.3 km/h 5.1 km/h 96 % 0 mm
07:57 -17.9 °C -18.3 °C 33683.9 hPa NE 2.3 km/h 2.6 km/h 96 % 0 mm
08:03 -17.9 °C -18.2 °C 33683.9 hPa ENE 2.3 km/h 2.6 km/h 96 % 0 mm
08:09 -17.9 °C -18.2 °C 33683.9 hPa ENE 5.1 km/h 5.1 km/h 96 % 0 mm
08:15 -17.9 °C -18.2 °C 33683.9 hPa Calm   5.1 km/h 96 % 0 mm
08:21 -17.8 °C -18.2 °C 33683.9 hPa ENE 2.3 km/h 5.1 km/h 96 % 0 mm
08:27 -17.8 °C -18.2 °C 33683.9 hPa Calm   7.7 km/h 96 % 0 mm
08:33 -17.8 °C -18.2 °C 33683.9 hPa Calm   2.6 km/h 96 % 0 mm
08:39 -17.8 °C -18.2 °C 33683.9 hPa Calm   2.6 km/h 96 % 0 mm
08:45 -17.8 °C -18.1 °C 33683.9 hPa Calm     96 % 0 mm
08:52 -17.8 °C -18.1 °C 33683.9 hPa Calm   2.6 km/h 96 % 0 mm
08:58 -17.7 °C -18.1 °C 33683.9 hPa NE 2.3 km/h 2.6 km/h 96 % 0 mm
09:04 -17.7 °C -18 °C 33673.8 hPa Calm   2.6 km/h 96 % 0 mm
09:10 -17.6 °C -17.9 °C 33683.9 hPa Calm     96 % 0 mm
09:18 -17.5 °C -17.7 °C 33673.8 hPa Calm     97 % 0 mm
09:24 -17.4 °C -17.8 °C 33673.8 hPa NE 5.1 km/h 5.1 km/h 96 % 0 mm
09:30 -17.4 °C -17.8 °C 33673.8 hPa Calm   2.6 km/h 96 % 0 mm
09:36 -17.3 °C -17.7 °C 33660.2 hPa Calm     96 % 0 mm
09:42 -17.3 °C -17.6 °C 33660.2 hPa Calm   2.6 km/h 96 % 0 mm
09:48 -17.2 °C -17.5 °C 33660.2 hPa Calm     96 % 0 mm
09:56 -17.1 °C -17.4 °C 33660.2 hPa Calm     96 % 0 mm
10:00 -17 °C -17.3 °C 33660.2 hPa NE 5.1 km/h 5.1 km/h 96 % 0 mm
10:06 -17.1 °C -17.4 °C 33660.2 hPa Calm   5.1 km/h 96 % 0 mm
10:12 -17 °C -17.3 °C 33660.2 hPa Calm     96 % 0 mm
10:18 -16.9 °C -17.2 °C 33660.2 hPa Calm   2.6 km/h 96 % 0 mm
10:20 -16.9 °C -17.2 °C 33660.2 hPa Calm   2.6 km/h 96 % 0 mm
10:26 -16.9 °C -17.2 °C 33660.2 hPa Calm     96 % 0 mm
10:32 -16.8 °C -17.2 °C 33650.1 hPa NE 5.1 km/h 5.1 km/h 95 % 0 mm
10:38 -16.8 °C -17.2 °C 33650.1 hPa Calm   5.1 km/h 96 % 0 mm
10:44 -16.7 °C -17.1 °C 33650.1 hPa NE 2.3 km/h 5.1 km/h 96 % 7.62 mm
10:50 -16.7 °C -17 °C 33650.1 hPa Calm   5.1 km/h 96 % 12.7 mm
10:56 -16.6 °C -16.9 °C 33639.9 hPa Calm   2.6 km/h 96 % 12.7 mm
11:03 -16.5 °C -16.9 °C 33639.9 hPa NE 2.3 km/h 5.1 km/h 95 % 25.4 mm
11:09 -16.4 °C -16.8 °C 33639.9 hPa Calm   5.1 km/h 95 % 33.02 mm
11:15 -16.4 °C -16.8 °C 33639.9 hPa Calm   5.1 km/h 95 % 38.1 mm
11:21 -16.3 °C -16.7 °C 33639.9 hPa ENE 2.3 km/h 7.7 km/h 95 % 38.1 mm
11:27 -16.2 °C -16.7 °C 33639.9 hPa ENE 7.6 km/h 7.7 km/h 94 % 38.1 mm
11:33 -16.1 °C -16.6 °C 33639.9 hPa East 2.3 km/h 5.1 km/h 93 % 38.1 mm
11:39 -16 °C -16.7 °C 33639.9 hPa Calm   5.1 km/h 92 % 45.72 mm
11:45 -15.9 °C -16.7 °C 33639.9 hPa Calm   7.7 km/h 91 % 38.1 mm
11:51 -15.9 °C -16.7 °C 33639.9 hPa East 5.1 km/h 5.1 km/h 90 % 38.1 mm
11:57 -15.8 °C -16.7 °C 33639.9 hPa ENE 7.6 km/h 7.7 km/h 90 % 33.02 mm
12:03 -15.8 °C -16.7 °C 33626.4 hPa Calm   10.3 km/h 89 % 25.4 mm
12:09 -15.7 °C -16.6 °C 33626.4 hPa ENE 5.1 km/h 10.3 km/h 89 % 20.32 mm
12:15 -15.7 °C -16.6 °C 33616.2 hPa NE 7.6 km/h 10.3 km/h 89 % 20.32 mm
12:21 -15.6 °C -16.6 °C 33616.2 hPa ENE 5.1 km/h 10.3 km/h 88 % 20.32 mm
12:27 -15.6 °C -16.6 °C 33616.2 hPa East 2.3 km/h 5.1 km/h 88 % 12.7 mm
12:33 -15.4 °C -16.6 °C 33602.7 hPa ENE 7.6 km/h 10.3 km/h 87 % 12.7 mm
12:39 -15.4 °C -16.5 °C 33602.7 hPa ENE 7.6 km/h 10.3 km/h 87 % 12.7 mm
12:45 -15.3 °C -16.4 °C 33592.5 hPa East 7.6 km/h 15.6 km/h 86 % 12.7 mm
12:51 -15.2 °C -16.4 °C 33592.5 hPa East 10.3 km/h 12.9 km/h 85 % 7.62 mm
12:57 -14.9 °C -16.3 °C 33592.5 hPa NE 7.6 km/h 12.9 km/h 84 % 7.62 mm
13:03 -14.7 °C -16.1 °C 33582.3 hPa East 5.1 km/h 15.6 km/h 84 % 7.62 mm
13:09 -14.5 °C -16.2 °C 33582.3 hPa East 10.3 km/h 18.2 km/h 81 % 7.62 mm
13:15 -14.4 °C -16.3 °C 33582.3 hPa East 15.6 km/h 18.2 km/h 79 % 0 mm
13:21 -14.3 °C -16.1 °C 33568.8 hPa ENE 10.3 km/h 12.9 km/h 80 % 0 mm
13:27 -14.1 °C -16.1 °C 33568.8 hPa East 12.7 km/h 23.3 km/h 78 % 0 mm
13:33 -14 °C -16 °C 33568.8 hPa ENE 15.6 km/h 18.2 km/h 78 % 0 mm
13:39 -13.9 °C -16 °C 33558.6 hPa East 12.7 km/h 23.3 km/h 77 % 0 mm
13:45 -13.7 °C -15.9 °C 33558.6 hPa East 10.3 km/h 20.8 km/h 76 % 0 mm
13:51 -13.6 °C -15.8 °C 33558.6 hPa East 12.7 km/h 15.6 km/h 75 % 0 mm
13:57 -13.5 °C -16 °C 33558.6 hPa ESE 20.9 km/h 23.3 km/h 73 % 0 mm
14:03 -13.3 °C -15.8 °C 33545.1 hPa SE 10.3 km/h 25.9 km/h 73 % 0 mm
14:09 -13.2 °C -15.7 °C 33545.1 hPa NE 15.6 km/h 25.9 km/h 73 % 0 mm
14:15 -13.1 °C -15.7 °C 33545.1 hPa ENE 10.3 km/h 18.2 km/h 73 % 0 mm
14:21 -12.9 °C -15.7 °C 33545.1 hPa East 17.9 km/h 23.3 km/h 71 % 0 mm
14:23 -12.9 °C -15.4 °C 33545.1 hPa ENE 10.3 km/h 23.3 km/h 73 % 0 mm
14:29 -12.8 °C -15.6 °C 33545.1 hPa ESE 12.7 km/h 18.2 km/h 71 % 0 mm
14:35 -12.7 °C -15.4 °C 33534.9 hPa ENE 15.6 km/h 23.3 km/h 72 % 0 mm
14:41 -12.7 °C -15.6 °C 33534.9 hPa East 17.9 km/h 25.9 km/h 70 % 0 mm
14:47 -12.6 °C -15.4 °C 33524.8 hPa East 7.6 km/h 18.2 km/h 71 % 0 mm
14:53 -12.6 °C -15.4 °C 33524.8 hPa ENE 17.9 km/h 25.9 km/h 71 % 0 mm
14:59 -12.7 °C -15.3 °C 33524.8 hPa East 7.6 km/h 20.8 km/h 72 % 0 mm
15:05 -12.6 °C -15.5 °C 33524.8 hPa ENE 10.3 km/h 23.3 km/h 70 % 0 mm
15:11 -12.6 °C -15.4 °C 33524.8 hPa East 12.7 km/h 20.8 km/h 70 % 0 mm
15:17 -12.6 °C -15.3 °C 33524.8 hPa ENE 7.6 km/h 23.3 km/h 71 % 0 mm
15:23 -12.5 °C -15.4 °C 33511.2 hPa East 10.3 km/h 18.2 km/h 70 % 0 mm
15:29 -12.6 °C -15.4 °C 33511.2 hPa ENE 17.9 km/h 31.1 km/h 70 % 0 mm
15:35 -12.6 °C -15.4 °C 33501.1 hPa East 12.7 km/h 23.3 km/h 70 % 0 mm
15:41 -12.6 °C -15.4 °C 33501.1 hPa East 10.3 km/h 18.2 km/h 70 % 0 mm
15:47 -12.5 °C -15.3 °C 33501.1 hPa East 10.3 km/h 15.6 km/h 71 % 0 mm
15:53 -12.4 °C -15.3 °C 33501.1 hPa East 10.3 km/h 25.9 km/h 70 % 0 mm
15:59 -12.4 °C -15.2 °C 33490.9 hPa East 7.6 km/h 18.2 km/h 71 % 0 mm
16:05 -12.4 °C -15.3 °C 33490.9 hPa ENE 10.3 km/h 20.8 km/h 70 % 0 mm
16:11 -12.4 °C -15.3 °C 33490.9 hPa ENE 5.1 km/h 20.8 km/h 70 % 0 mm
16:17 -12.3 °C -15.1 °C 33477.4 hPa East 10.3 km/h 20.8 km/h 71 % 0 mm
16:23 -12.2 °C -15.1 °C 33477.4 hPa ESE 5.1 km/h 12.9 km/h 70 % 0 mm
16:29 -12.2 °C -15.2 °C 33477.4 hPa East 7.6 km/h 18.2 km/h 69 % 0 mm
16:35 -12.3 °C -15.3 °C 33477.4 hPa ENE 10.3 km/h 12.9 km/h 69 % 0 mm
16:41 -12.3 °C -15.2 °C 33467.2 hPa ESE 5.1 km/h 15.6 km/h 70 % 0 mm
16:47 -12.3 °C -15.2 °C 33467.2 hPa East 5.1 km/h 7.7 km/h 70 % 0 mm
16:53 -12.3 °C -15.2 °C 33467.2 hPa East 5.1 km/h 12.9 km/h 70 % 0 mm
16:59 -12.4 °C -15.2 °C 33477.4 hPa East 10.3 km/h 10.3 km/h 71 % 0 mm
17:05 -12.4 °C -15.2 °C 33467.2 hPa East 15.6 km/h 20.8 km/h 71 % 0 mm
17:11 -12.5 °C -15.3 °C 33467.2 hPa East 5.1 km/h 15.6 km/h 71 % 0 mm
17:17 -12.6 °C -15.2 °C 33467.2 hPa ENE 12.7 km/h 20.8 km/h 72 % 0 mm
17:23 -12.6 °C -15.2 °C 33467.2 hPa NE 12.7 km/h 15.6 km/h 72 % 0 mm
17:29 -12.6 °C -15.3 °C 33467.2 hPa East 7.6 km/h 12.9 km/h 72 % 0 mm
17:35 -12.6 °C -15.3 °C 33467.2 hPa SE 7.6 km/h 20.8 km/h 72 % 0 mm
17:41 -12.7 °C -15.3 °C 33467.2 hPa ESE 10.3 km/h 18.2 km/h 72 % 0 mm
17:47 -12.6 °C -15.3 °C 33467.2 hPa ENE 15.6 km/h 20.8 km/h 72 % 0 mm
17:53 -12.7 °C -15.2 °C 33453.7 hPa ENE 7.6 km/h 18.2 km/h 73 % 0 mm
17:59 -12.7 °C -15.3 °C 33453.7 hPa SE 5.1 km/h 12.9 km/h 73 % 0 mm
18:05 -12.9 °C -15.3 °C 33453.7 hPa ESE 7.6 km/h 12.9 km/h 74 % 0 mm
18:11 -13 °C -15.3 °C 33453.7 hPa East 5.1 km/h 12.9 km/h 75 % 0 mm
18:17 -13.1 °C -15.4 °C 33453.7 hPa East 7.6 km/h 10.3 km/h 75 % 0 mm
18:23 -13.1 °C -15.4 °C 33453.7 hPa ESE 15.6 km/h 15.6 km/h 75 % 0 mm
18:29 -13.1 °C -15.4 °C 33453.7 hPa East 17.9 km/h 36.2 km/h 75 % 0 mm
18:35 -13.1 °C -15.4 °C 33453.7 hPa Calm   20.8 km/h 75 % 0 mm
18:41 -13.2 °C -15.6 °C 33453.7 hPa East 5.1 km/h 12.9 km/h 75 % 0 mm
18:47 -13.3 °C -15.5 °C 33453.7 hPa East 7.6 km/h 20.8 km/h 76 % 0 mm
18:53 -13.4 °C -15.6 °C 33453.7 hPa East 7.6 km/h 12.9 km/h 76 % 0 mm
18:59 -13.5 °C -15.6 °C 33453.7 hPa Calm   5.1 km/h 77 % 0 mm
19:05 -13.6 °C -15.6 °C 33453.7 hPa Calm   5.1 km/h 78 % 0 mm
19:12 -13.7 °C -15.7 °C 33467.2 hPa Calm   5.1 km/h 78 % 0 mm
19:18 -13.8 °C -15.8 °C 33467.2 hPa SE 2.3 km/h 2.6 km/h 78 % 0 mm
19:24 -13.8 °C -15.7 °C 33467.2 hPa SE 2.3 km/h 2.6 km/h 79 % 0 mm
19:30 -13.9 °C -15.7 °C 33467.2 hPa Calm     80 % 0 mm
19:36 -14 °C -15.8 °C 33453.7 hPa ESE 2.3 km/h 7.7 km/h 80 % 0 mm
19:42 -14.1 °C -15.8 °C 33453.7 hPa East 26.2 km/h 26.2 km/h 80 % 0 mm
19:48 -14 °C -15.8 °C 33453.7 hPa SE 7.6 km/h 20.8 km/h 80 % 0 mm
19:54 -14.1 °C -15.8 °C 33453.7 hPa East 5.1 km/h 15.6 km/h 80 % 0 mm
20:00 -14.2 °C -15.9 °C 33443.5 hPa East 10.3 km/h 25.9 km/h 81 % 0 mm
20:06 -14.3 °C -16 °C 33443.5 hPa Calm   10.3 km/h 81 % 0 mm
20:12 -14.3 °C -15.9 °C 33443.5 hPa ENE 5.1 km/h 7.7 km/h 82 % 0 mm
20:18 -14.3 °C -15.8 °C 33443.5 hPa ESE 7.6 km/h 20.8 km/h 82 % 0 mm
20:24 -14.3 °C -15.9 °C 33443.5 hPa SE 10.3 km/h 18.2 km/h 82 % 0 mm
20:30 -14.4 °C -15.9 °C 33443.5 hPa SE 10.3 km/h 12.9 km/h 82 % 0 mm
20:36 -14.4 °C -15.9 °C 33443.5 hPa East 10.3 km/h 12.9 km/h 82 % 0 mm
20:42 -14.4 °C -15.9 °C 33443.5 hPa East 5.1 km/h 10.3 km/h 82 % 0 mm
20:48 -14.5 °C -16 °C 33443.5 hPa East 7.6 km/h 20.8 km/h 83 % 0 mm
20:54 -14.4 °C -15.9 °C 33443.5 hPa ENE 5.1 km/h 15.6 km/h 83 % 0 mm
21:00 -14.3 °C -15.9 °C 33443.5 hPa East 7.6 km/h 15.6 km/h 82 % 0 mm
21:06 -14.3 °C -15.9 °C 33443.5 hPa East 2.3 km/h 20.8 km/h 81 % 0 mm
21:12 -14.2 °C -15.8 °C 33433.4 hPa East 5.1 km/h 23.3 km/h 82 % 0 mm
21:18 -14.3 °C -15.8 °C 33433.4 hPa ENE 7.6 km/h 23.3 km/h 82 % 0 mm
21:24 -14.3 °C -15.8 °C 33433.4 hPa East 17.9 km/h 20.8 km/h 82 % 0 mm
21:30 -14.3 °C -15.8 °C 33433.4 hPa ESE 12.7 km/h 23.3 km/h 82 % 0 mm
21:36 -14.3 °C -15.9 °C 33433.4 hPa East 5.1 km/h 12.9 km/h 82 % 0 mm
21:42 -14.3 °C -15.9 °C 33433.4 hPa East 10.3 km/h 20.8 km/h 82 % 0 mm
21:48 -14.3 °C -15.9 °C 33433.4 hPa ESE 5.1 km/h 20.8 km/h 82 % 0 mm
21:54 -14.3 °C -15.9 °C 33419.8 hPa ENE 15.6 km/h 18.2 km/h 82 % 0 mm
22:00 -14.3 °C -15.8 °C 33419.8 hPa East 10.3 km/h 18.2 km/h 82 % 0 mm
22:06 -14.3 °C -15.8 °C 33419.8 hPa East 10.3 km/h 15.6 km/h 82 % 0 mm
22:14 -14.3 °C -15.8 °C 33419.8 hPa East 10.3 km/h 23.3 km/h 82 % 0 mm
22:20 -14.3 °C -15.8 °C 33419.8 hPa ENE 17.9 km/h 18.2 km/h 82 % 0 mm
22:30 -14.2 °C -15.8 °C 33419.8 hPa East 7.6 km/h 18.2 km/h 82 % 0 mm
22:36 -14.2 °C -15.8 °C 33409.7 hPa ESE 17.9 km/h 18.2 km/h 82 % 0 mm
22:42 -14.2 °C -15.8 °C 33409.7 hPa East 15.6 km/h 25.9 km/h 81 % 0 mm
22:48 -14.1 °C -15.8 °C 33409.7 hPa East 17.9 km/h 18.2 km/h 81 % 0 mm
22:54 -14.1 °C -15.8 °C 33409.7 hPa East 5.1 km/h 20.8 km/h 81 % 0 mm
23:00 -14.1 °C -15.8 °C 33409.7 hPa ENE 10.3 km/h 20.8 km/h 81 % 0 mm
23:06 -14.1 °C -15.7 °C 33409.7 hPa ESE 12.7 km/h 20.8 km/h 81 % 0 mm
23:12 -14.2 °C -15.8 °C 33409.7 hPa East 5.1 km/h 18.2 km/h 81 % 0 mm
23:18 -14.2 °C -15.8 °C 33409.7 hPa East 10.3 km/h 18.2 km/h 82 % 0 mm
23:24 -14.2 °C -15.8 °C 33396.1 hPa East 17.9 km/h 20.8 km/h 82 % 0 mm
23:30 -14.2 °C -15.8 °C 33396.1 hPa East 7.6 km/h 25.9 km/h 82 % 0 mm
23:36 -14.2 °C -15.8 °C 33396.1 hPa East 15.6 km/h 23.3 km/h 82 % 0 mm
23:42 -14.2 °C -15.8 °C 33396.1 hPa SE 10.3 km/h 18.2 km/h 82 % 0 mm
23:48 -14.2 °C -15.8 °C 33396.1 hPa East 7.6 km/h 20.8 km/h 82 % 0 mm
23:54 -14.3 °C -15.8 °C 33396.1 hPa SE 2.3 km/h 12.9 km/h 83 % 0 mm
Meteo18
Compliments of Weather Underground - 4 mb

Script developed by  Jim McMurry - jmcmurry@mwt.net Adapted for the template by  Wim van der Kuil - Leuven-Template.eu

You find our weather info also at:

European Weather Network

Weather Underground

Equipment we use:

Weather-station
Davis Vue

Weather-program
Meteobridge

Weather-server
Raspberry PI 2 B+

Provider
1 and 1

Davis Vue

Meteobridge

Raspberry PI 2 B+

1 and 1